Jonesboro, AR

8:05 AM CDT on April 29, 2017 (GMT -0500)
Jonesboro Municipal

Weather History for KJBR - August, 2012

Change the Weather History Date:

Sunday, August 26, 2012

  Actual Average Record
Temperature  
Mean Temperature 81 °F 79 °F  
Max Temperature 92 °F 89 °F 104 °F (1943)
Min Temperature 70 °F 68 °F 49 °F (1917)
Degree Days  
Heating Degree Days 0 0  
Month to date heating degree days 0 0  
Since 1 June heating degree days 0 1  
Since 1 July heating degree days 0 0  
Cooling Degree Days 16 14  
Month to date cooling degree days 397 396  
Year to date cooling degree days 1953 1483  
Since 1 June cooling degree days 1449 1270  
Growing Degree Days 30 (Base 50)    
Moisture  
Dew Point 70 °F    
Average Humidity 71    
Maximum Humidity 97    
Minimum Humidity 44    
Precipitation  
Precipitation 0.01 in 0.08 in 3.63 in (1964)
Month to date precipitation 1.42 2.11  
Year to date precipitation 17.02 30.68  
Snow  
Snow 0.00 in 0.00 in - ()
Month to date snowfall 0.0 0.0  
Since 1 June snowfall 0.0 0.0  
Since 1 July snowfall 0.0 0.0  
Snow Depth 0.00 in    
Sea Level Pressure  
Sea Level Pressure 30.04 in    
Wind  
Wind Speed 7 mph (SSW)    
Max Wind Speed 18 mph    
Max Gust Speed 24 mph    
Visibility 10 miles    
Events      
T = Trace of Precipitation, MM = Missing Value Source: NWS Daily Summary

Daily Weather History Graph

Daily Weather History Graph

Search for Another Location

Airport or City:

Trip Planner

Search our weather history database for the weather conditions in past years. The results will help you decide how hot, cold, wet, or windy it might be!

Date:

Astronomy

Aug. 26, 2012 Rise Set
Actual Time 6:30 AM CDT 7:37 PM CDT
Civil Twilight 6:03 AM CDT 8:03 PM CDT
Nautical Twilight 5:32 AM CDT 8:35 PM CDT
Astronomical Twilight 4:59 AM CDT 9:07 PM CDT
Moon 4:01 PM CDT (8/26) 1:17 AM CDT (8/26)
Length of Visible Light 14h 00m
Length of Day
13h 07m
Waxing Gibbous, 73% of the Moon is Illuminated
Aug 26
Waxing Gibbous
Aug 31
Full
Sep 8
Last Quarter
Sep 15
New
Sep 22
First Quarter

Hourly Weather History & Observations

Time (CDT) Temp. Heat Index Dew Point Humidity Pressure Visibility Wind Dir Wind Speed Gust Speed Precip Events Conditions
12:53 AM 71.1 °F - 68.0 °F 90% 30.02 in 10.0 mi Calm Calm - N/A   Mostly Cloudy
1:53 AM 71.1 °F - 68.0 °F 90% 30.01 in 10.0 mi South 4.6 mph - N/A   Clear
2:53 AM 71.1 °F - 68.0 °F 90% 30.02 in 10.0 mi South 4.6 mph - N/A   Clear
3:53 AM 71.1 °F - 68.0 °F 90% 30.02 in 10.0 mi Calm Calm - N/A   Clear
4:53 AM 70.0 °F - 68.0 °F 93% 30.04 in 10.0 mi Calm Calm - N/A   Clear
5:53 AM 71.1 °F - 68.0 °F 90% 30.05 in 10.0 mi South 3.5 mph - N/A   Mostly Cloudy
6:53 AM 70.0 °F - 68.0 °F 93% 30.07 in 7.0 mi South 3.5 mph - 0.01 in   Mostly Cloudy
7:53 AM 72.0 °F - 69.1 °F 91% 30.09 in 7.0 mi South 6.9 mph - N/A   Overcast
8:14 AM 71.6 °F - 69.8 °F 94% 30.10 in 7.0 mi South 6.9 mph - N/A   Mostly Cloudy
8:53 AM 73.9 °F - 71.1 °F 91% 30.09 in 10.0 mi SSW 6.9 mph - N/A   Overcast
9:53 AM 78.1 °F - 71.1 °F 79% 30.09 in 10.0 mi South 11.5 mph - N/A   Overcast
10:53 AM 80.1 °F 83.6 °F 71.1 °F 74% 30.10 in 10.0 mi SSW 9.2 mph - N/A   Overcast
11:41 AM 84.2 °F 89.6 °F 71.6 °F 66% 30.09 in 10.0 mi SW 10.4 mph - N/A   Mostly Cloudy
11:53 AM 84.9 °F 90.7 °F 72.0 °F 65% 30.08 in 10.0 mi SSW 10.4 mph - N/A   Mostly Cloudy
12:42 PM 87.8 °F 93.8 °F 71.6 °F 58% 30.07 in 10.0 mi SSW 12.7 mph - N/A   Mostly Cloudy
12:53 PM 88.0 °F 93.8 °F 71.1 °F 57% 30.06 in 10.0 mi SSW 15.0 mph 20.7 mph N/A   Scattered Clouds
1:53 PM 89.1 °F 94.1 °F 70.0 °F 53% 30.04 in 10.0 mi SSW 17.3 mph 23.0 mph N/A   Scattered Clouds
2:53 PM 91.4 °F 95.4 °F 68.0 °F 46% 30.02 in 10.0 mi SW 16.1 mph 23.0 mph N/A   Clear
3:53 PM 91.0 °F 94.3 °F 66.9 °F 45% 29.99 in 10.0 mi SW 17.3 mph 21.9 mph N/A   Clear
4:53 PM 91.0 °F 95.2 °F 68.0 °F 47% 29.98 in 10.0 mi South 10.4 mph - N/A   Clear
5:53 PM 90.0 °F 95.4 °F 70.0 °F 52% 29.97 in 10.0 mi South 11.5 mph - N/A   Scattered Clouds
6:53 PM 87.1 °F 91.3 °F 69.1 °F 55% 29.96 in 10.0 mi South 8.1 mph - N/A   Clear
7:53 PM 82.9 °F 87.0 °F 70.0 °F 65% 29.97 in 10.0 mi South 5.8 mph - N/A   Clear
8:53 PM 78.1 °F - 72.0 °F 81% 30.00 in 10.0 mi Calm Calm - N/A   Clear
9:53 PM 77.0 °F - 71.1 °F 82% 30.01 in 10.0 mi Calm Calm - N/A   Clear
10:53 PM 77.0 °F - 70.0 °F 79% 30.02 in 10.0 mi Calm Calm - N/A   Clear
11:53 PM 77.0 °F - 70.0 °F 79% 30.01 in 10.0 mi South 4.6 mph - N/A   Clear